Time,TemperatureF,DewpointF,PressureIn,WindDirection,WindDirectionDegrees,WindSpeedMPH,WindSpeedGustMPH,Humidity,HourlyPrecipIn,Conditions,Clouds,dailyrainin,SoftwareType,DateUTC
2017-02-21 03:07:00,33.0,32.0,29.61,SW,230,0.0,-999.0,96,-99.99,,,-99.99,,2017-02-21 11:07:00,
2017-02-21 04:06:00,33.0,32.0,29.61,SW,230,0.0,-999.0,96,-99.99,,,-99.99,,2017-02-21 12:06:00,
2017-02-21 05:06:00,33.0,32.0,29.61,SW,230,0.0,-999.0,96,-99.99,,,-99.99,,2017-02-21 13:06:00,
2017-02-21 06:06:00,34.0,33.0,29.63,SSE,163,0.0,-999.0,96,-99.99,,,-99.99,,2017-02-21 14:06:00,
2017-02-21 07:06:00,35.0,34.0,29.67,WSW,240,1.0,-999.0,95,-99.99,,,-99.99,,2017-02-21 15:06:00,
2017-02-21 07:35:00,35.0,33.0,29.71,South,186,2.0,-999.0,93,-99.99,,,-99.99,,2017-02-21 15:35:00,
2017-02-21 08:14:00,34.0,32.0,29.75,SSW,200,1.0,-999.0,93,-99.99,,,-99.99,,2017-02-21 16:14:00,
2017-02-21 08:35:00,34.0,32.0,29.76,South,182,0.0,-999.0,94,-99.99,,,-99.99,,2017-02-21 16:35:00,
2017-02-21 09:05:00,34.0,32.0,29.79,SW,219,0.0,-999.0,94,-99.99,,,-99.99,,2017-02-21 17:05:00,
2017-02-21 09:24:00,34.0,33.0,29.80,SW,219,0.0,-999.0,95,-99.99,,,-99.99,,2017-02-21 17:24:00,
2017-02-21 09:40:00,34.0,33.0,29.84,South,182,0.0,-999.0,95,-99.99,,,-99.99,,2017-02-21 17:40:00,
2017-02-21 09:43:00,34.0,33.0,29.80,SW,219,0.0,-999.0,95,-99.99,,,-99.99,,2017-02-21 17:43:00,
2017-02-21 10:03:00,34.0,33.0,29.82,SW,223,0.0,-999.0,95,-99.99,,,-99.99,,2017-02-21 18:03:00,
2017-02-21 10:12:00,34.0,33.0,29.83,South,182,0.0,-999.0,95,-99.99,,,-99.99,,2017-02-21 18:12:00,
2017-02-21 10:23:00,34.0,33.0,29.83,South,182,0.0,-999.0,95,-99.99,,,-99.99,,2017-02-21 18:23:00,
2017-02-21 11:24:00,36.0,33.0,29.90,SSW,202,1.0,-999.0,90,-99.99,,,-99.99,,2017-02-21 19:24:00,
2017-02-21 12:05:00,36.0,33.0,29.92,West,274,1.0,-999.0,89,-99.99,,,-99.99,,2017-02-21 20:05:00,
2017-02-21 12:24:00,36.0,33.0,29.93,SE,144,0.0,-999.0,87,-99.99,,,-99.99,,2017-02-21 20:24:00,
2017-02-21 13:05:00,35.0,32.0,29.94,WNW,297,1.0,-999.0,89,-99.99,,,-99.99,,2017-02-21 21:05:00,
2017-02-21 13:36:00,35.0,32.0,29.95,South,175,0.0,-999.0,88,-99.99,,,-99.99,,2017-02-21 21:36:00,
2017-02-21 14:05:00,36.0,33.0,29.96,SSW,201,0.0,-999.0,89,-99.99,,,-99.99,,2017-02-21 22:05:00,
2017-02-21 14:24:00,36.0,33.0,29.96,South,180,0.0,-999.0,89,-99.99,,,-99.99,,2017-02-21 22:24:00,
2017-02-21 15:05:00,37.0,32.0,29.96,WSW,238,1.0,-999.0,81,-99.99,,,-99.99,,2017-02-21 23:05:00,
2017-02-21 15:35:00,35.0,31.0,29.98,WNW,286,1.0,-999.0,86,-99.99,,,-99.99,,2017-02-21 23:35:00,
2017-02-21 15:54:00,34.0,31.0,29.99,West,275,1.0,-999.0,90,-99.99,,,-99.99,,2017-02-21 23:54:00,
2017-02-21 16:13:00,36.0,33.0,30.00,SSE,166,0.0,-999.0,88,-99.99,,,-99.99,,2017-02-22 00:13:00,
2017-02-21 16:45:00,34.0,32.0,30.02,NW,304,0.0,-999.0,91,-99.99,,,-99.99,,2017-02-22 00:45:00,
2017-02-21 17:05:00,34.0,32.0,30.02,WNW,283,0.0,-999.0,91,-99.99,,,-99.99,,2017-02-22 01:05:00,
2017-02-21 17:44:00,33.0,31.0,30.02,SW,217,0.0,-999.0,92,-99.99,,,-99.99,,2017-02-22 01:44:00,
2017-02-21 18:04:00,32.0,30.0,30.03,SSE,149,0.0,-999.0,91,-99.99,,,-99.99,,2017-02-22 02:04:00,
2017-02-21 18:48:00,31.0,29.0,30.03,South,175,0.0,-999.0,92,-99.99,,,-99.99,,2017-02-22 02:48:00,
2017-02-21 19:05:00,30.0,28.0,30.04,South,175,0.0,-999.0,92,-99.99,,,-99.99,,2017-02-22 03:05:00,
2017-02-21 19:35:00,30.0,28.0,30.07,South,175,0.0,-999.0,93,-99.99,,,-99.99,,2017-02-22 03:35:00,
2017-02-21 20:04:00,30.0,28.0,30.07,South,175,0.0,-999.0,92,-99.99,,,-99.99,,2017-02-22 04:04:00,
2017-02-21 20:24:00,29.0,27.0,30.08,South,175,0.0,-999.0,92,-99.99,,,-99.99,,2017-02-22 04:24:00,
2017-02-21 21:05:00,28.0,26.0,30.10,South,175,0.0,-999.0,93,-99.99,,,-99.99,,2017-02-22 05:05:00,